Location: Blackwall
(51.5097°N, 0.0016°W)
Time: 00:27:37
(UTC+00:00)

Cosmos 2221 - Pass Details

Date: 15 May 2026
Orbit: 569 x 587 km, 82.5° (Epoch: 9 June)

Event Time Altitude Azimuth Distance (km) Brightness Sun altitude
Exits shadow 23:39:41 37° 223° (SW) 900 3.0 -19.3°
Maximum altitude 23:41:04 58° 284° (WNW) 680 2.8 -19.4°
Drops below altitude 10° 23:45:14 10° 4° (N) 1,910 6.3 -19.4°
Sets 23:47:29 0° 8° (N) 2,818 7.5 -19.4°
